BCS915 EDDF-EDDP

Flight info

Callsign BCS915
Flight time N/A
Altitude 24000
Route TOBAK2S/18 TOBAK N858 MAXOT T212 LASTO T956 GOXLI GOXLI1V
Aircraft B77L/H-SDE1E2E3FGHIJ2J3J4J5M1RWXY/LB1D1

Departure

Time 2026-05-04 15:46
Airport Frankfurt Main Airport (EDDF)

Arrival

Time N/A
Airport Leipzig/Halle Airport (EDDP)
Time Latitude Longitude Altitude Speed Heading
2026-05-04 14:09 50.04062 8.54794 354 ft 0 kts 69°
2026-05-04 14:10 50.04062 8.54796 354 ft 0 kts 69°
2026-05-04 14:10 50.04063 8.54797 354 ft 0 kts 69°
2026-05-04 14:10 50.04063 8.54798 354 ft 0 kts 69°
2026-05-04 14:10 50.04063 8.54799 354 ft 0 kts 69°
2026-05-04 14:11 50.04063 8.54800 354 ft 0 kts 69°
2026-05-04 14:11 50.04064 8.54802 354 ft 0 kts 69°
2026-05-04 14:54 50.04058 8.54777 347 ft 0 kts 69°
2026-05-04 15:30 50.04049 8.54730 358 ft 4 kts 88°
2026-05-04 15:30 50.04074 8.54631 358 ft 0 kts 157°
2026-05-04 15:38 50.04060 8.54640 359 ft 3 kts 158°
2026-05-04 15:38 50.04033 8.54657 354 ft 0 kts 159°
2026-05-04 15:38 50.04030 8.54658 353 ft 3 kts 159°
2026-05-04 15:39 50.03981 8.54694 359 ft 0 kts 147°
2026-05-04 15:39 50.03965 8.54729 359 ft 7 kts 109°
2026-05-04 15:39 50.03985 8.54880 354 ft 8 kts 72°
2026-05-04 15:40 50.03970 8.54953 359 ft 8 kts 139°
2026-05-04 15:40 50.03922 8.54995 356 ft 8 kts 158°
2026-05-04 15:40 50.03871 8.55030 359 ft 8 kts 148°
2026-05-04 15:40 50.03853 8.55111 356 ft 8 kts 86°
2026-05-04 15:41 50.03870 8.55202 357 ft 9 kts 70°
2026-05-04 15:41 50.03897 8.55315 357 ft 13 kts 71°
2026-05-04 15:41 50.03931 8.55462 355 ft 17 kts 70°
2026-05-04 15:41 50.03977 8.55651 353 ft 20 kts 69°
2026-05-04 15:42 50.04030 8.55872 356 ft 24 kts 70°
2026-05-04 15:42 50.04090 8.56128 354 ft 26 kts 69°
2026-05-04 15:42 50.04159 8.56412 356 ft 29 kts 70°
2026-05-04 15:42 50.04233 8.56724 352 ft 32 kts 67°
2026-05-04 15:43 50.04312 8.57055 356 ft 28 kts 70°
2026-05-04 15:43 50.04382 8.57343 353 ft 29 kts 70°
2026-05-04 15:43 50.04431 8.57547 358 ft 12 kts 72°
2026-05-04 15:43 50.04429 8.57604 358 ft 0 kts 114°
2026-05-04 15:44 50.04424 8.57614 357 ft 8 kts 129°
2026-05-04 15:44 50.04421 8.57617 357 ft 0 kts 134°
2026-05-04 15:44 50.04378 8.57657 357 ft 16 kts 157°
2026-05-04 15:45 50.04303 8.57701 358 ft 9 kts 172°
2026-05-04 15:45 50.04261 8.57639 354 ft 9 kts 249°
2026-05-04 15:45 50.04226 8.57496 354 ft 39 kts 249°
2026-05-04 15:45 50.03992 8.56520 355 ft 152 kts 250°
2026-05-04 15:46 50.03552 8.54666 1091 ft 188 kts 248°
2026-05-04 15:46 50.03099 8.52830 2773 ft 186 kts 250°
2026-05-04 15:46 50.02660 8.50710 3592 ft 225 kts 265°
2026-05-04 15:46 50.02783 8.48009 4111 ft 280 kts 278°
2026-05-04 15:47 50.03078 8.44963 4173 ft 281 kts 279°
2026-05-04 15:47 50.03747 8.42209 4130 ft 267 kts 302°
2026-05-04 15:47 50.04955 8.40117 4130 ft 256 kts 318°
2026-05-04 15:47 50.06351 8.38428 4132 ft 253 kts 321°
2026-05-04 15:48 50.07746 8.36810 4135 ft 253 kts 321°
2026-05-04 15:48 50.09159 8.35164 4123 ft 253 kts 321°
2026-05-04 15:48 50.12121 8.32041 4409 ft 269 kts 339°
2026-05-04 15:49 50.13958 8.31944 4275 ft 266 kts 16°
2026-05-04 15:49 50.15665 8.33053 4239 ft 270 kts 25°
2026-05-04 15:49 50.17355 8.34294 4406 ft 270 kts 23°
2026-05-04 15:49 50.19098 8.35443 4898 ft 275 kts 21°
2026-05-04 15:50 50.20913 8.36500 5493 ft 282 kts 19°
2026-05-04 15:50 50.22802 8.37487 6142 ft 289 kts 17°
2026-05-04 15:50 50.24741 8.38434 6767 ft 295 kts 17°
2026-05-04 15:50 50.26712 8.39376 7383 ft 298 kts 17°
2026-05-04 15:51 50.28699 8.40365 8014 ft 298 kts 22°
2026-05-04 15:51 50.30422 8.42124 8585 ft 296 kts 43°
2026-05-04 15:51 50.31967 8.44337 9312 ft 305 kts 44°
2026-05-04 15:51 50.33552 8.46592 9954 ft 308 kts 43°
2026-05-04 15:52 50.35125 8.48812 10549 ft 309 kts 43°
2026-05-04 15:52 50.36743 8.51084 11196 ft 316 kts 43°
2026-05-04 15:52 50.38412 8.53418 11847 ft 328 kts 43°
2026-05-04 15:52 50.40154 8.55846 12527 ft 342 kts 43°
2026-05-04 15:53 50.41971 8.58375 13226 ft 356 kts 43°
2026-05-04 15:53 50.43862 8.61011 13919 ft 371 kts 43°
2026-05-04 15:53 50.45843 8.63725 14551 ft 384 kts 41°
2026-05-04 15:53 50.47933 8.66466 15172 ft 391 kts 41°
2026-05-04 15:54 50.50010 8.69160 15780 ft 394 kts 40°
2026-05-04 15:54 50.52135 8.71928 16408 ft 398 kts 41°
2026-05-04 15:54 50.54272 8.74733 17038 ft 401 kts 41°
2026-05-04 15:54 50.56414 8.77579 17710 ft 402 kts 43°
2026-05-04 15:55 50.58211 8.80940 18332 ft 401 kts 61°
2026-05-04 15:55 50.59541 8.84834 18963 ft 407 kts 64°
2026-05-04 15:55 50.60861 8.88843 19567 ft 416 kts 64°
2026-05-04 15:55 50.62204 8.92887 20174 ft 423 kts 64°
2026-05-04 15:56 50.63594 8.97000 20815 ft 426 kts 63°
2026-05-04 15:56 50.65008 9.01137 21454 ft 430 kts 63°
2026-05-04 15:56 50.66443 9.05306 22103 ft 434 kts 63°
2026-05-04 15:56 50.67876 9.09462 22758 ft 438 kts 63°
2026-05-04 15:57 50.69341 9.13716 23415 ft 443 kts 63°
2026-05-04 15:57 50.70830 9.18054 23707 ft 456 kts 63°
2026-05-04 15:57 50.72339 9.22496 23879 ft 458 kts 64°
2026-05-04 15:57 50.73789 9.27000 23930 ft 466 kts 65°
2026-05-04 15:58 50.75226 9.31608 23975 ft 480 kts 65°
2026-05-04 15:58 50.76715 9.36422 23978 ft 495 kts 65°
2026-05-04 15:58 50.78254 9.41387 23976 ft 504 kts 65°
2026-05-04 15:58 50.79806 9.46369 23976 ft 506 kts 65°
2026-05-04 15:59 50.81363 9.51354 23954 ft 505 kts 65°
2026-05-04 15:59 50.82916 9.56324 23972 ft 504 kts 65°
2026-05-04 15:59 50.84452 9.61246 23973 ft 504 kts 65°
2026-05-04 15:59 50.86001 9.66227 23968 ft 504 kts 65°
2026-05-04 16:00 50.87546 9.71206 23952 ft 504 kts 65°
2026-05-04 16:00 50.89092 9.76194 23977 ft 504 kts 65°
2026-05-04 16:00 50.90638 9.81185 23971 ft 505 kts 65°
2026-05-04 16:00 50.92188 9.86197 23972 ft 505 kts 65°
2026-05-04 16:01 50.93733 9.91202 23973 ft 506 kts 65°
2026-05-04 16:01 50.95277 9.96215 23974 ft 506 kts 65°
2026-05-04 16:01 50.96820 10.01262 23966 ft 507 kts 65°
2026-05-04 16:01 50.98348 10.06302 23969 ft 507 kts 65°
2026-05-04 16:02 50.99877 10.11362 23967 ft 507 kts 65°
2026-05-04 16:02 51.01384 10.16357 23971 ft 508 kts 65°
2026-05-04 16:02 51.04436 10.26486 23965 ft 508 kts 65°
2026-05-04 16:03 51.05940 10.31564 23971 ft 507 kts 66°
2026-05-04 16:03 51.07356 10.36709 23965 ft 507 kts 68°
2026-05-04 16:03 51.08772 10.41856 23974 ft 507 kts 67°
2026-05-04 16:03 51.10211 10.46968 23966 ft 507 kts 66°
2026-05-04 16:04 51.11645 10.52014 23967 ft 507 kts 66°
2026-05-04 16:04 51.14387 10.62314 23962 ft 503 kts 75°
2026-05-04 16:04 51.14908 10.67788 23973 ft 500 kts 91°
2026-05-04 16:05 51.14631 10.73291 23972 ft 494 kts 102°
2026-05-04 16:05 51.14130 10.78699 23978 ft 496 kts 98°
2026-05-04 16:05 51.13669 10.89688 23976 ft 501 kts 95°
2026-05-04 16:06 51.13508 10.95247 23971 ft 502 kts 95°
2026-05-04 16:06 51.12978 11.09482 23949 ft 455 kts 96°
2026-05-04 16:07 51.12714 11.16015 23629 ft 441 kts 95°
2026-05-04 16:07 51.12182 11.30459 22002 ft 430 kts 95°
2026-05-04 16:08 51.12010 11.35154 21453 ft 417 kts 95°
2026-05-04 16:08 51.11509 11.48212 19780 ft 378 kts 95°
2026-05-04 16:09 51.11505 11.56379 18701 ft 364 kts 76°
2026-05-04 16:09 51.13639 11.63519 17611 ft 353 kts 62°
2026-05-04 16:10 51.15955 11.70378 16490 ft 353 kts 62°
2026-05-04 16:11 51.19034 11.79744 15072 ft 359 kts 63°
2026-05-04 16:11 51.20119 11.83073 14520 ft 348 kts 63°
2026-05-04 16:12 51.23150 11.92945 12809 ft 317 kts 79°
2026-05-04 16:12 51.23647 12.03191 11151 ft 304 kts 88°
2026-05-04 16:13 51.23949 12.09764 10187 ft 289 kts 88°
2026-05-04 16:13 51.24259 12.16281 9945 ft 291 kts 87°
2026-05-04 16:14 51.24564 12.22744 9128 ft 292 kts 87°
2026-05-04 16:14 51.24858 12.29041 8106 ft 279 kts 87°
2026-05-04 16:15 51.25339 12.37958 6584 ft 259 kts 75°
2026-05-04 16:16 51.26707 12.43246 5621 ft 259 kts 65°
2026-05-04 16:16 51.28921 12.51096 5059 ft 260 kts 66°
2026-05-04 16:17 51.30349 12.56362 5000 ft 254 kts 66°
2026-05-04 16:18 51.31546 12.64475 5009 ft 258 kts 88°
2026-05-04 16:18 51.31634 12.67360 5003 ft 261 kts 87°
2026-05-04 16:19 51.31937 12.75518 4951 ft 221 kts 87°
2026-05-04 16:19 51.32129 12.80197 5025 ft 202 kts 87°
2026-05-04 16:20 51.34180 12.85191 5002 ft 200 kts
2026-05-04 16:20 51.36949 12.84739 5009 ft 202 kts 350°
2026-05-04 16:21 51.40554 12.83662 4996 ft 197 kts 347°
2026-05-04 16:22 51.42760 12.81522 5003 ft 191 kts 298°
2026-05-04 16:22 51.43622 12.75381 4536 ft 186 kts 269°
2026-05-04 16:23 51.43468 12.69838 4496 ft 189 kts 265°
2026-05-04 16:24 51.43113 12.62064 4492 ft 186 kts 265°
2026-05-04 16:25 51.42920 12.57902 4380 ft 192 kts 265°